Tracking 28348 objects as of 8-Dec-2023
HD Live streaming from Space Station
objects crossing your sky now

STARLINK-30462

Track STARLINK-30462 now!
10-day predictions
STARLINK-30462 is classified as:


NORAD ID: 57902
Int'l Code: 2023-146M
Perigee: 565.1 km
Apogee: 567.3 km
Inclination: 43.0 °
Period: 95.8 minutes
Semi major axis: 6937 km
RCS: Unknown
Launch date: September 20, 2023
Source: United States (US)
Launch site: AIR FORCE EASTERN TEST RANGE (AFETR)
Your satellite tracking list
Your tracking list is empty




NASA's NSSDC Master Catalog

Two Line Element Set (TLE):
1 57902U 23146M   23341.53367089  .00000221  00000-0  31427-4 0  9999
2 57902  43.0001 106.0205 0001605 281.2129  78.8533 15.02544512 13203
Source of the keplerian elements: AFSPC